• In Hungary
  • List of Countries
  • For 7 days
  • Water Temperature
  • Satellite Maps
  • Weather Map
  • News
  • Weather Widgets
  • user-avatar
    Login

    Hourly Weather Ashkelon

    Today, 22 January, Monday

    Time Temperature Precipitation Wind Pressure Humidity
    00:00 +17°C° 0 mm 2 mps 756 mmHg 38%
    01:00 +17°C° 0 mm 3 mps 756 mmHg 35%
    02:00 +17°C° 0 mm 4 mps 755 mmHg 32%
    03:00 +16°C° 0 mm 5 mps 755 mmHg 34%
    04:00 +15°C° 0 mm 5 mps 755 mmHg 35%
    05:00 +15°C° 0 mm 5 mps 755 mmHg 36%
    06:00 +15°C° 0 mm 6 mps 755 mmHg 39%
    07:00 +15°C° 0 mm 6 mps 755 mmHg 43%
    08:00 +15°C° 0 mm 6 mps 755 mmHg 46%
    09:00 +17°C° 0 mm 6 mps 755 mmHg 43%
    10:00 +18°C° 0 mm 7 mps 755 mmHg 40%
    11:00 +20°C° 0 mm 8 mps 755 mmHg 37%
    12:00 +20°C° 0 mm 7 mps 755 mmHg 37%
    13:00 +20°C° 0 mm 7 mps 755 mmHg 36%
    14:00 +20°C° 0 mm 7 mps 755 mmHg 36%
    15:00 +19°C° 0 mm 6 mps 754 mmHg 40%
    16:00 +19°C° 0 mm 5 mps 754 mmHg 44%
    17:00 +18°C° 0 mm 4 mps 754 mmHg 49%
    18:00 +16°C° 0 mm 5 mps 754 mmHg 48%
    19:00 +16°C° 0 mm 5 mps 755 mmHg 48%
    20:00 +15°C° 0 mm 5 mps 755 mmHg 48%
    21:00 +15°C° 0 mm 6 mps 755 mmHg 48%
    22:00 +15°C° 0 mm 7 mps 755 mmHg 49%
    23:00 +15°C° 0 mm 8 mps 755 mmHg 49%

    Tomorrow, 23 January, Tuesday

    Time Temperature Precipitation Wind Pressure Humidity
    00:00 +15°C° 0.1 mm 8 mps 755 mmHg 52%
    01:00 +15°C° 0.1 mm 9 mps 755 mmHg 55%
    02:00 +13°C° 0.1 mm 9 mps 755 mmHg 58%
    03:00 +13°C° 0.5 mm 10 mps 755 mmHg 62%
    04:00 +13°C° 0.5 mm 10 mps 755 mmHg 66%
    05:00 +13°C° 0.5 mm 10 mps 755 mmHg 71%
    06:00 +13°C° 0.4 mm 10 mps 755 mmHg 72%
    07:00 +13°C° 0.4 mm 10 mps 756 mmHg 74%
    08:00 +13°C° 0.4 mm 10 mps 756 mmHg 75%
    09:00 +14°C° 0.3 mm 10 mps 756 mmHg 71%
    10:00 +14°C° 0.3 mm 10 mps 757 mmHg 67%
    11:00 +16°C° 0.3 mm 10 mps 757 mmHg 63%
    12:00 +16°C° 0.3 mm 10 mps 757 mmHg 64%
    13:00 +16°C° 0.3 mm 9 mps 757 mmHg 65%
    14:00 +16°C° 0.3 mm 9 mps 757 mmHg 66%
    15:00 +16°C° 0.2 mm 8 mps 757 mmHg 68%
    16:00 +15°C° 0.2 mm 7 mps 757 mmHg 70%
    17:00 +15°C° 0.2 mm 6 mps 758 mmHg 72%
    18:00 +15°C° 0.1 mm 6 mps 758 mmHg 74%
    19:00 +14°C° 0.1 mm 5 mps 758 mmHg 77%
    20:00 +14°C° 0.1 mm 4 mps 758 mmHg 80%
    21:00 +14°C° 0.1 mm 4 mps 759 mmHg 80%
    22:00 +14°C° 0.1 mm 4 mps 759 mmHg 80%
    23:00 +14°C° 0.1 mm 5 mps 759 mmHg 80%

    Day after tomorrow, 24 January, Wednesday

    Time Temperature Precipitation Wind Pressure Humidity
    00:00 +14°C° 0.1 mm 5 mps 759 mmHg 80%
    01:00 +14°C° 0.1 mm 5 mps 759 mmHg 80%
    02:00 +14°C° 0.1 mm 5 mps 759 mmHg 79%
    03:00 +14°C° 0.1 mm 4 mps 759 mmHg 79%
    04:00 +13°C° 0.1 mm 4 mps 759 mmHg 80%
    05:00 +13°C° 0.1 mm 4 mps 759 mmHg 80%
    06:00 +13°C° 0.1 mm 4 mps 759 mmHg 79%
    07:00 +13°C° 0.1 mm 3 mps 759 mmHg 78%
    08:00 +14°C° 0.1 mm 3 mps 759 mmHg 77%
    09:00 +14°C° 0.1 mm 3 mps 759 mmHg 73%
    10:00 +16°C° 0.1 mm 3 mps 759 mmHg 68%
    11:00 +17°C° 0.1 mm 4 mps 759 mmHg 64%
    12:00 +17°C° 0.1 mm 3 mps 759 mmHg 61%
    13:00 +17°C° 0.1 mm 3 mps 758 mmHg 59%
    14:00 +17°C° 0.1 mm 3 mps 758 mmHg 56%
    15:00 +17°C° 0.1 mm 3 mps 758 mmHg 59%
    16:00 +16°C° 0.1 mm 3 mps 758 mmHg 61%
    17:00 +16°C° 0.1 mm 3 mps 758 mmHg 63%
    18:00 +15°C° 0.1 mm 2 mps 758 mmHg 67%
    19:00 +15°C° 0.1 mm 2 mps 758 mmHg 71%
    20:00 +14°C° 0.1 mm 1 mps 758 mmHg 74%
    21:00 +14°C° 0.1 mm 1 mps 758 mmHg 73%
    22:00 +14°C° 0.1 mm 2 mps 758 mmHg 73%
    23:00 +14°C° 0.1 mm 2 mps 758 mmHg 72%

    25 January, Thursday

    Time Temperature Precipitation Wind Pressure Humidity
    00:00 +14°C° 0.2 mm 2 mps 758 mmHg 71%
    01:00 +13°C° 0.2 mm 2 mps 757 mmHg 70%
    02:00 +13°C° 0.2 mm 2 mps 757 mmHg 69%
    03:00 +13°C° 0.4 mm 2 mps 757 mmHg 68%
    04:00 +13°C° 0.4 mm 2 mps 756 mmHg 68%
    05:00 +12°C° 0.4 mm 3 mps 756 mmHg 67%
    06:00 +12°C° 0.7 mm 4 mps 756 mmHg 68%
    07:00 +13°C° 0.7 mm 5 mps 757 mmHg 69%
    08:00 +12°C° 0.7 mm 7 mps 757 mmHg 70%
    09:00 +12°C° 0.8 mm 7 mps 757 mmHg 73%
    10:00 +12°C° 0.8 mm 8 mps 757 mmHg 76%
    11:00 +12°C° 0.8 mm 9 mps 757 mmHg 78%
    12:00 +12°C° 0.5 mm 9 mps 757 mmHg 73%
    13:00 +13°C° 0.5 mm 9 mps 756 mmHg 68%
    14:00 +13°C° 0.5 mm 9 mps 756 mmHg 63%
    15:00 +13°C° 0.3 mm 9 mps 756 mmHg 63%
    16:00 +13°C° 0.3 mm 8 mps 756 mmHg 63%
    17:00 +13°C° 0.3 mm 8 mps 756 mmHg 63%
    18:00 +12°C° 0.6 mm 8 mps 756 mmHg 65%
    19:00 +12°C° 0.6 mm 8 mps 756 mmHg 66%
    20:00 +12°C° 0.6 mm 8 mps 756 mmHg 68%
    21:00 +12°C° 1.1 mm 9 mps 756 mmHg 72%
    22:00 +11°C° 1.1 mm 10 mps 756 mmHg 76%
    23:00 +11°C° 1.1 mm 11 mps 757 mmHg 81%

    26 January, Friday

    Time Temperature Precipitation Wind Pressure Humidity
    00:00 +11°C° 0.8 mm 11 mps 757 mmHg 79%
    01:00 +9°C° 0.8 mm 11 mps 757 mmHg 77%
    02:00 +9°C° 0.8 mm 11 mps 757 mmHg 76%
    03:00 +8°C° 0.3 mm 11 mps 757 mmHg 75%
    04:00 +8°C° 0.3 mm 10 mps 757 mmHg 75%
    05:00 +8°C° 0.3 mm 10 mps 757 mmHg 74%
    06:00 +8°C° 0.1 mm 10 mps 757 mmHg 73%
    07:00 +8°C° 0.1 mm 11 mps 758 mmHg 72%
    08:00 +8°C° 0.1 mm 11 mps 758 mmHg 70%
    09:00 +9°C° 0.2 mm 11 mps 758 mmHg 69%
    10:00 +9°C° 0.2 mm 12 mps 758 mmHg 67%
    11:00 +9°C° 0.2 mm 12 mps 758 mmHg 65%
    12:00 +10°C° 0.6 mm 12 mps 758 mmHg 64%
    13:00 +10°C° 0.6 mm 12 mps 758 mmHg 62%
    14:00 +10°C° 0.6 mm 13 mps 757 mmHg 61%
    15:00 +10°C° 0.9 mm 12 mps 757 mmHg 63%
    16:00 +10°C° 0.9 mm 12 mps 758 mmHg 66%
    17:00 +9°C° 0.9 mm 12 mps 758 mmHg 69%
    18:00 +9°C° 1 mm 11 mps 758 mmHg 72%
    19:00 +9°C° 1 mm 10 mps 759 mmHg 75%
    20:00 +10°C° 1 mm 8 mps 759 mmHg 78%
    21:00 +10°C° 1 mm 8 mps 759 mmHg 78%
    22:00 +10°C° 1 mm 7 mps 759 mmHg 79%
    23:00 +10°C° 1 mm 7 mps 760 mmHg 79%

    27 January, Saturday

    Time Temperature Precipitation Wind Pressure Humidity
    00:00 +10°C° 0.9 mm 7 mps 760 mmHg 81%
    01:00 +9°C° 0.9 mm 6 mps 760 mmHg 82%
    02:00 +9°C° 0.9 mm 6 mps 760 mmHg 83%
    03:00 +9°C° 0.9 mm 5 mps 760 mmHg 84%
    04:00 +9°C° 0.9 mm 5 mps 760 mmHg 84%
    05:00 +10°C° 0.9 mm 4 mps 761 mmHg 85%
    06:00 +10°C° 0.4 mm 4 mps 761 mmHg 84%
    07:00 +10°C° 0.4 mm 4 mps 762 mmHg 84%
    08:00 +11°C° 0.4 mm 3 mps 762 mmHg 83%
    09:00 +11°C° 0.2 mm 3 mps 762 mmHg 79%
    10:00 +12°C° 0.2 mm 4 mps 763 mmHg 75%
    11:00 +13°C° 0.2 mm 4 mps 763 mmHg 72%
    12:00 +13°C° 0.2 mm 4 mps 763 mmHg 71%
    13:00 +13°C° 0.2 mm 4 mps 763 mmHg 70%
    14:00 +14°C° 0.2 mm 4 mps 763 mmHg 69%
    15:00 +14°C° 0.1 mm 4 mps 763 mmHg 71%
    16:00 +13°C° 0.1 mm 4 mps 763 mmHg 72%
    17:00 +13°C° 0.1 mm 4 mps 763 mmHg 74%
    18:00 +13°C° 0.1 mm 4 mps 764 mmHg 76%
    19:00 +13°C° 0.1 mm 3 mps 764 mmHg 77%
    20:00 +13°C° 0.1 mm 3 mps 764 mmHg 78%
    21:00 +12°C° 0 mm 3 mps 764 mmHg 79%
    22:00 +13°C° 0 mm 2 mps 765 mmHg 80%
    23:00 +13°C° 0 mm 2 mps 765 mmHg 80%
    Show more